Location: Wharf Road Observatory
(44.7802°N, 65.6070°W)
Time: 03:54:57
(UTC-03:00)

Envisat - Visible Passes

Search period start: 28 September 2022 00:00
Search period end: 08 October 2022 00:00
Orbit: 764 x 765 km, 98.2° (Epoch: 27 September)

Date Brightness Start Highest point End Pass type
(mag) Time Alt. Az. Time Alt. Az. Time Alt. Az.
28 Sep 3.1 05:47:12 10° NNE 05:52:18 82° ESE 05:57:23 10° SSW visible
29 Sep 4.4 05:10:31 10° NNE 05:15:14 38° E 05:19:56 10° SSE visible
30 Sep 5.6 04:34:34 10° NE 04:37:58 18° E 04:41:22 10° SE visible
30 Sep 3.0 06:12:22 10° N 06:17:22 60° WNW 06:22:22 10° SSW visible
01 Oct 3.4 05:35:23 10° NNE 05:40:27 64° ESE 05:45:29 10° S visible
02 Oct 4.8 04:58:52 10° NE 05:03:18 30° E 05:07:44 10° SSE visible
02 Oct 3.6 06:37:43 10° N 06:42:21 36° WNW 06:46:57 10° SW visible
03 Oct 5.8 04:23:22 10° ENE 04:25:58 14° E 04:28:34 10° ESE visible
03 Oct 2.9 06:00:27 10° N 06:05:33 76° WNW 06:10:37 10° SSW visible
04 Oct 3.8 05:23:36 10° NNE 05:28:33 50° E 05:33:28 10° S visible
05 Oct 5.2 04:47:17 10° NE 04:51:21 24° E 04:55:24 10° SE visible
05 Oct 3.3 06:25:44 10° N 06:30:34 45° WNW 06:35:22 10° SW visible
06 Oct 6.0 04:12:53 10° ENE 04:13:57 11° E 04:15:01 10° E visible
06 Oct 3.0 05:48:35 10° NNE 05:53:42 86° ESE 05:58:47 10° SSW visible
07 Oct 4.3 05:11:52 10° NNE 05:16:39 40° E 05:21:23 10° SSE visible
07 Oct 3.9 06:51:12 10° N 06:55:29 28° WNW 06:59:44 10° WSW visible
